Weather History for LTCE - September, 2013

Change the Weather History Date:

Sunday, September 1, 2013

  Actual Average Record
Temperature  
Mean Temperature 65 °F -  
Max Temperature 83 °F 72 °F 91 °F (2006)
Min Temperature 47 °F 45 °F 37 °F (2001)
Growing Degree Days 15 (Base 50)    
Moisture  
Dew Point 37 °F    
Average Humidity 38    
Maximum Humidity 72    
Minimum Humidity 6    
Precipitation  
Precipitation 0.00 in 0.03 in - ()
Sea Level Pressure  
Sea Level Pressure 30.06 in    
Wind  
Wind Speed 6 mph ()    
Max Wind Speed 17 mph    
Max Gust Speed 32 mph    
Visibility 7.0 miles    
Events      
Averages and records for this station are not official NWS values.
T = Trace of Precipitation, MM = Missing Value Source: Averaged Metar Reports

Daily Weather History Graph

Daily Weather History Graph

Search for Another Location

Airport or City:

Trip Planner

Search our weather history database for the weather conditions in past years. The results will help you decide how hot, cold, wet, or windy it might be!

Date:

Astronomy

Sep. 01, 2013 Rise Set
Actual Time 5:43 AM EEST 6:46 PM EEST
Civil Twilight 5:15 AM EEST 7:14 PM EEST
Nautical Twilight 4:42 AM EEST 7:47 PM EEST
Astronomical Twilight 4:07 AM EEST 8:21 PM EEST
Moon 1:45 AM EEST (9/1) 4:10 PM EEST (9/1)
Length of Visible Light 13h 59m
Length of Day
13h 03m
Waning Crescent, 16% of the Moon is Illuminated
Sep 1
Waning Crescent
Sep 5
New
Sep 12
First Quarter
Sep 19
Full
Sep 27
Last Quarter

Hourly Weather History & Observations

Time (EEST) Temp. Dew Point Humidity Pressure Visibility Wind Dir Wind Speed Gust Speed Precip Events Conditions
12:20 AM 68.0 °F 37.4 °F 33% 30.04 in - SW 6.9 mph - N/A   Clear
12:50 AM 66.2 °F 35.6 °F 32% 30.04 in - SW 4.6 mph - N/A   Clear
1:20 AM 66.2 °F 35.6 °F 32% 30.04 in - SW 4.6 mph - N/A   Clear
1:50 AM 57.2 °F 37.4 °F 48% 30.04 in - NNE 6.9 mph - N/A   Clear
2:20 AM 53.6 °F 39.2 °F 58% 30.04 in - North 4.6 mph - N/A   Clear
2:50 AM 50.0 °F 39.2 °F 66% 30.06 in - ENE 5.8 mph - N/A   Clear
3:20 AM 50.0 °F 39.2 °F 66% 30.04 in - Variable 2.3 mph - N/A   Clear
3:50 AM 48.2 °F 37.4 °F 66% 30.04 in - NNE 3.5 mph - N/A   Clear
4:20 AM 48.2 °F 39.2 °F 71% 30.04 in - Variable 2.3 mph - N/A   Clear
4:50 AM 53.6 °F 37.4 °F 54% 30.04 in - ESE 3.5 mph - N/A   Clear
5:20 AM 48.2 °F 37.4 °F 66% 30.06 in - Variable 1.2 mph - N/A   Clear
5:50 AM 48.2 °F 37.4 °F 66% 30.06 in - Variable 2.3 mph - N/A   Clear
6:20 AM 50.0 °F 37.4 °F 62% 30.06 in - WSW 3.5 mph - N/A   Clear
6:50 AM 53.6 °F 39.2 °F 58% 30.06 in - Variable 1.2 mph - N/A   Clear
7:20 AM 57.2 °F 39.2 °F 51% 30.06 in - Variable 1.2 mph - N/A   Clear
7:50 AM 62.6 °F 39.2 °F 42% 30.06 in - Variable 2.3 mph - N/A   Clear
8:20 AM 64.4 °F 41.0 °F 42% 30.06 in - Variable 2.3 mph - N/A   Clear
8:50 AM 68.0 °F 39.2 °F 35% 30.06 in - NNE 3.5 mph - N/A   Clear
9:00 AM 69 °F 39 °F 22%  in 12 mi NNE 3.5 mph - -  
9:20 AM 73.4 °F 39.2 °F 29% 30.06 in - Variable 5.8 mph - N/A   Clear
9:50 AM 75.2 °F 35.6 °F 24% 30.06 in - SSW 9.2 mph - N/A   Clear
10:20 AM 77.0 °F 35.6 °F 22% 30.06 in 6.2 mi Variable 4.6 mph - N/A   Partly Cloudy
10:50 AM 77.0 °F 37.4 °F 24% 30.04 in 6.2 mi North 8.1 mph - N/A   Partly Cloudy
11:20 AM 77.0 °F 37.4 °F 24% 30.04 in 6.2 mi WNW 9.2 mph - N/A   Partly Cloudy
11:50 AM 78.8 °F 37.4 °F 23% 30.04 in 6.2 mi West 8.1 mph - N/A   Partly Cloudy
12:20 PM 80.6 °F 32.0 °F 17% 30.04 in 6.2 mi WSW 15.0 mph - N/A   Scattered Clouds
12:50 PM 82.4 °F 28.4 °F 14% 30.04 in 6.2 mi SW 12.7 mph 25.3 mph N/A   Scattered Clouds
1:20 PM 82.4 °F 26.6 °F 13% 30.04 in 6.2 mi SW 17.3 mph 32.2 mph N/A   Scattered Clouds
1:50 PM 82.4 °F 26.6 °F 13% 30.01 in 6.2 mi SW 17.3 mph - N/A   Scattered Clouds
2:20 PM 82.4 °F 28.4 °F 14% 30.01 in 6.2 mi SW 16.1 mph 27.6 mph N/A   Scattered Clouds
2:50 PM 82.4 °F 28.4 °F 14% 30.01 in 6.2 mi SW 15.0 mph 28.8 mph N/A   Scattered Clouds
3:00 PM 83 °F 28 °F 6%  in 12 mi SW 15.0 mph - -   Partly Cloudy
3:20 PM 84.2 °F 28.4 °F 13% 30.01 in 6.2 mi SW 16.1 mph 27.6 mph N/A   Scattered Clouds
3:50 PM 80.6 °F 28.4 °F 15% 30.01 in 6.2 mi WSW 15.0 mph - N/A   Scattered Clouds
4:20 PM 80.6 °F 30.2 °F 16% 30.01 in 6.2 mi SW 12.7 mph - N/A   Scattered Clouds
4:50 PM 78.8 °F 32.0 °F 18% 30.01 in 6.2 mi SW 13.8 mph - N/A   Scattered Clouds
5:20 PM 77.0 °F 32.0 °F 19% 30.01 in 6.2 mi SW 10.4 mph - N/A   Scattered Clouds
5:50 PM 77.0 °F 30.2 °F 18% 30.04 in 6.2 mi SW 10.4 mph - N/A   Scattered Clouds
6:20 PM 77.0 °F 30.2 °F 18% 30.04 in 6.2 mi WSW 13.8 mph - N/A   Scattered Clouds
6:50 PM 73.4 °F 33.8 °F 23% 30.04 in 6.2 mi WSW 10.4 mph - N/A   Partly Cloudy
7:20 PM 69.8 °F 39.2 °F 33% 30.04 in 6.2 mi West 9.2 mph - N/A   Partly Cloudy
7:50 PM 66.2 °F 41.0 °F 40% 30.06 in 6.2 mi West 8.1 mph - N/A   Partly Cloudy
8:20 PM 68.0 °F 44.6 °F 43% 30.09 in - NNW 5.8 mph - N/A   Clear
8:50 PM 68.0 °F 44.6 °F 43% 30.12 in - NW 6.9 mph - N/A   Clear
9:00 PM 69 °F 44 °F 29%  in 12 mi NW 6.9 mph - -  
9:20 PM 62.6 °F 48.2 °F 59% 30.12 in - NE 9.2 mph - N/A   Clear
9:50 PM 62.6 °F 48.2 °F 59% 30.12 in - East 4.6 mph - N/A   Clear
10:20 PM 57.2 °F 46.4 °F 67% 30.15 in - ESE 5.8 mph - N/A   Clear
10:50 PM 55.4 °F 46.4 °F 72% 30.15 in - SE 6.9 mph - N/A   Clear
11:20 PM 55.4 °F 46.4 °F 72% 30.15 in - ESE 6.9 mph - N/A   Clear
11:50 PM 55.4 °F 46.4 °F 72% 30.15 in - ESE 6.9 mph - N/A   Clear